Zurück zum Katalog

COSMOS 312

AktivMilitärLEO
NORAD 4254·PAYLOAD·🇷🇺 Russia

Gestartet Nov 24, 1969 von Plesetsk Cosmodrome

Loading…

Nächste Überflüge (nächste 24 Stunden)

TLE

AktuellSource: Space-Track

Epoche: Sep 14, 2026, 14:05 UTC

1 04254U 69103A   26257.58722537 -.00000005  00000-0  33460-4 0  9991
2 04254  74.0207 298.8748 0022552 161.3434   4.2802 13.27213848751504

Verfolge COSMOS 312 in Echtzeit mit AllMySat

Download on the App Store